Aeroporto :







RITROVATECI SU...

 
LOGIN :

Iscrizione | Disclaimer

   EN    FR    IT 

 









Sommario :    VFR   VFR Marginale   IFR   IFR Intensivo   IFR Molto Intensivo
Visibilità : 
Base nubi : 
>= 8 km
>= 3000ft
5 / 8 km
1000 / 3000 ft
1500m / 5 km
500 / 1000 ft
800 / 1500m
200 / 500 ft
< 800m
< 200 ft
Simboli :   Temporali  Nebbia  Neve Forte  Precipitazioni Forti  Vento > 20 kt






- Altitudine del aeroporto : 62 ft
- Codice IATA : ANU


TAPA - V C Bird Int.

ULTIMO METAR :
  • 021100Z 06006KT 9999 FEW018 24/20 Q1014 NOSIG

METARs OBSOLETI :
  • 021000Z 07004KT 9999 FEW020 24/19 Q1013 NOSIG
  • 020900Z 07005KT 9999 FEW020 24/20 Q1013 NOSIG

TAF TAF TAPA
Valido dal 02 a 12 ore il 03 a 12 ore UTC


021124Z 0212/0312 07010KT 9999 SCT020
FIR TTZP / America del Nord



MetMap, La meteo Aeronautica in un colpo d'occhio ! - Copyright ORBIFLY Dicembre 2007 - Disclaimer

ORBIFLY MET'MAP TEAM :

Programmazione e sviluppo : Alexandra Zaïnal
Concezione : Baudouin d'Aumeries
Aiuto per la programmazione : Marc-Olivier Méhu
Supporto tecnico e logistico : Manuel Goepfert
Aiuto per la traduzione : Arnaldo La Scala

Contatto : metmap@orbifly.com




FONTI E CREDITI :

   NOAA